User: anonymous   Login
Location: NJAA Observatory
(40.6819°N, 74.8979°W)
Time: 06:13:21
(UTC-04:00)
Language:

Iridium 84 - Orbit

View from above orbital plane
View from above orbital plane
View from above satellite
View from above satellite

Ground track
Ground track

The orbit data is extracted from the following two-line orbital elements,

1 25530U 98066D   16271.67579857 -.00000312  00000-0 -11859-3 0  9990
2 25530  86.3897  99.7379 0002156  79.8361 280.3070 14.34217815939377
Epoch (UTC): 27 September 2016 16:13:08
Eccentricity: 0.0002156
inclination: 86.3897°
perigee height: 776 km
apogee height: 779 km
right ascension of ascending node: 99.7379°
argument of perigee: 79.8361°
revolutions per day: 14.34217815
mean anomaly at epoch: 280.3070°
orbit number at epoch: 93937

The dashed part of the orbit path shows where the satellite is in the earth's shadow,  

DLR